Probability
3 3 3 4 5 7 10 11 11 10 9 9 7 4 2 0 0 0 0 0 0 0 0 0 0 0 0 0 0 0 0 0 0 0 0 0 0 0
3 3 3 4 5 8 11 13 12 12 11 9 7 5 2 1 0 0 0 0 0 0 0 0 0 0 0 0 0 0 0 0 0 0 0 0 0 0
2 2 3 4 6 10 13 14 13 12 12 10 8 5 3 1 0 0 0 0 0 0 0 0 0 0 0 0 0 0 0 0 0 0 0 0 0 0
2 2 3 5 8 11 13 14 13 12 11 10 9 7 4 1 0 0 0 0 0 0 0 0 0 0 0 0 0 0 0 0 0 0 0 0 0 0
3 3 5 8 11 12 12 12 12 11 10 10 10 8 5 2 1 0 0 0 0 0 0 0 0 0 0 0 0 0 0 0 0 0 0 0 0 0
6 6 7 12 14 13 12 12 12 11 10 9 9 7 4 3 2 1 1 0 0 0 0 0 0 0 0 0 0 0 0 0 0 0 0 0 0 0
9 8 9 13 15 13 12 12 12 11 11 9 7 5 4 3 3 3 2 1 0 0 0 0 0 0 0 0 0 0 0 0 0 0 0 0 0 0
12 12 12 14 14 13 11 11 11 11 11 10 7 5 4 3 3 3 3 2 1 1 0 0 0 0 0 0 0 0 0 0 0 0 0 0 0 0
16 17 16 15 14 14 12 11 11 10 10 9 7 5 4 3 3 3 3 3 3 2 1 0 0 0 0 0 0 0 0 0 0 0 0 0 0 0
21 20 18 15 14 13 12 12 12 10 7 6 5 4 3 2 2 2 3 3 3 2 1 0 0 0 0 0 0 0 0 0 0 0 0 0 0 0
20 20 18 16 13 10 9 10 10 8 5 3 3 3 3 2 1 1 2 2 2 2 1 0 0 0 0 0 0 0 0 0 0 0 0 0 0 0
17 17 16 14 10 7 7 9 9 7 5 4 3 3 4 3 2 3 3 2 2 3 2 1 1 1 1 1 0 0 0 0 0 0 0 0 0 0
16 17 15 9 4 3 4 7 7 6 6 5 4 4 5 5 5 5 5 4 3 3 3 3 2 1 2 2 1 0 0 0 0 0 0 0 0 0
17 17 14 7 1 0 1 3 3 3 4 5 4 4 5 6 6 6 6 5 4 4 4 4 3 2 2 2 2 1 1 1 1 1 1 0 0 0
14 13 10 5 1 0 0 1 1 2 5 5 5 6 7 7 7 6 6 5 4 4 5 5 4 4 4 4 3 3 2 2 2 1 1 1 1 1
7 7 6 4 3 2 2 2 2 4 6 6 6 8 9 8 7 6 6 6 6 6 7 8 8 8 6 4 3 3 3 3 2 1 1 1 2 1
4 5 6 7 7 7 7 6 5 6 6 6 7 7 8 8 7 6 7 7 8 8 9 10 10 8 4 2 2 2 2 2 2 1 1 1 1 0
3 6 8 10 11 12 12 11 9 8 7 7 6 6 5 5 5 5 5 6 6 7 8 9 9 6 3 1 1 1 1 1 1 1 0 0 0 0
2 5 9 11 13 14 16 15 13 11 9 7 6 6 5 4 4 3 3 4 4 5 6 7 7 4 3 2 1 1 0 0 0 0 0 0 0 0
1 3 8 12 14 16 17 18 17 16 12 8 6 6 6 5 4 2 2 3 4 4 4 4 4 3 4 4 3 2 1 0 0 0 0 0 0 0
1 1 5 10 13 15 16 17 18 18 15 10 7 6 6 5 4 2 1 2 3 3 2 1 1 2 3 4 3 3 2 1 0 0 0 0 0 0
1 2 3 7 11 13 13 14 16 17 16 13 9 7 5 4 3 1 0 1 1 1 0 0 0 1 2 3 3 3 3 1 0 0 0 0 0 0
1 3 4 6 9 11 11 12 13 14 15 14 11 7 5 4 2 1 0 0 0 0 0 0 0 0 1 3 3 3 3 2 1 0 0 0 0 0
Wind_Speed
1 1 1 1 2 2 2 2 2 1 2 2 2 1 1 1 1 1 2 2 2 2 2 2 2 2 2 1 1 2 2 2 3 3 4 4 4 4
1 1 0 1 1 1 2 2 2 2 2 2 2 2 2 1 1 2 2 3 3 3 3 3 4 3 3 3 3 3 3 3 3 4 4 4 5 5
0 1 1 0 0 1 1 1 1 2 3 2 2 1 1 2 1 1 2 2 2 4 4 5 5 5 5 5 5 5 4 4 4 4 4 4 5 5
1 1 1 1 0 1 1 1 2 2 3 3 2 1 2 2 2 2 2 2 3 4 6 6 6 5 5 6 5 5 5 5 5 5 5 5 5 5
2 2 2 1 2 1 1 1 1 1 2 2 2 1 2 1 1 2 3 2 3 4 5 7 7 7 6 6 6 6 7 7 6 6 6 6 6 6
3 3 3 3 3 3 2 2 2 1 1 2 2 2 2 1 1 2 3 2 3 3 4 4 5 6 7 7 7 7 8 8 8 7 7 6 6 6
3 3 4 4 4 3 2 3 2 2 2 2 2 2 2 2 2 2 3 3 4 3 3 3 3 3 4 6 8 8 9 9 9 8 8 8 7 7
4 4 4 3 4 5 5 5 4 4 4 3 3 4 4 4 3 3 3 2 4 2 2 4 2 4 4 4 6 7 8 9 9 9 8 8 8 8
4 4 3 3 3 3 4 5 5 6 7 5 5 6 5 5 4 4 4 4 5 2 2 4 3 5 4 5 7 8 8 8 8 9 9 9 9 9
5 5 4 4 4 4 3 4 4 5 6 6 6 7 6 5 5 5 4 4 4 3 3 4 3 4 4 5 7 9 9 9 9 9 9 9 10 10
4 4 5 5 5 4 3 4 5 5 5 6 7 7 7 6 5 3 3 3 4 4 3 3 3 3 4 5 5 8 9 9 9 9 9 9 9 9
3 4 5 5 4 4 4 4 5 6 5 4 4 5 6 5 6 6 5 4 4 4 3 4 3 2 3 3 3 4 5 7 9 9 9 9 8 6
4 4 3 5 5 5 5 5 7 6 4 4 4 4 3 3 4 5 5 5 5 5 3 4 3 3 3 4 3 3 4 4 4 5 7 8 9 8
5 4 4 5 6 6 5 6 6 4 3 3 3 4 4 4 4 4 5 6 7 8 5 5 4 4 4 4 4 3 3 4 4 4 4 5 7 9
5 6 5 6 5 4 5 6 4 3 3 3 4 5 5 5 4 4 4 5 6 6 5 5 5 5 5 5 5 4 3 3 3 4 3 4 4 4
5 4 5 5 4 4 4 4 3 4 4 5 5 5 4 4 4 3 3 3 4 5 5 6 6 6 5 6 5 4 4 3 3 4 3 4 3 4
3 2 2 2 3 3 3 3 3 3 4 5 5 5 5 5 4 3 3 3 4 5 5 3 4 4 5 4 4 5 4 4 3 3 3 4 4 4
3 3 4 4 4 5 4 4 4 4 5 5 5 5 5 5 5 4 3 4 5 5 5 3 2 2 2 3 5 5 4 4 3 3 3 4 5 4
3 4 5 5 5 5 5 5 5 5 4 4 5 5 5 5 5 5 4 5 5 5 5 3 3 3 4 5 4 5 5 4 3 3 4 4 5 5
4 5 5 5 5 5 5 5 5 4 4 4 5 5 5 5 5 5 5 6 5 5 4 3 4 4 5 5 4 4 6 5 4 4 4 4 4 4
4 5 5 4 4 4 4 4 4 4 4 4 5 5 4 4 5 5 5 6 5 5 5 5 4 5 3 2 3 4 3 6 6 5 4 4 4 3
4 4 4 4 4 4 4 4 4 4 5 4 4 4 4 4 5 5 5 5 4 5 6 4 3 2 3 4 5 5 5 4 5 7 7 6 4 4
4 4 4 4 4 3 3 4 5 4 4 4 4 4 4 4 4 4 4 4 4 4 4 3 3 2 3 4 5 4 5 5 3 3 4 6 8 8
Wind_Direction
201 197 201 212 191 197 189 184 180 248 286 270 270 279 267 259 265 243 250 253 228 222 220 223 224 223 229 239 244 217 211 210 204 206 210 211 220 232
184 169 234 244 211 191 191 199 197 200 249 265 254 274 279 286 268 254 249 257 251 241 229 228 233 235 230 230 234 232 228 217 212 211 214 218 226 235
211 160 256 250 228 207 184 190 198 196 238 272 256 272 259 279 302 281 265 260 261 248 242 239 238 236 234 233 231 230 226 224 223 220 223 227 230 235
229 220 266 257 262 245 207 213 217 212 220 259 276 262 257 270 284 281 278 265 259 254 247 246 245 241 241 238 232 229 226 225 226 225 226 229 232 236
224 227 247 234 253 251 236 238 238 227 218 236 269 264 258 274 292 286 281 274 272 264 250 249 250 248 247 241 235 228 225 226 227 227 228 231 233 236
235 233 238 229 235 238 236 236 231 225 216 235 261 270 264 266 260 270 281 269 272 279 271 263 256 252 252 246 240 235 228 225 224 223 227 231 232 233
254 247 245 241 235 228 230 225 217 222 228 240 254 262 254 245 250 251 263 280 266 251 268 269 264 260 255 251 246 242 234 227 225 223 226 228 228 229
252 259 257 248 248 240 234 226 214 217 225 230 244 247 250 240 240 243 252 272 278 242 246 268 250 258 256 247 246 239 234 228 225 224 223 224 225 226
243 252 261 258 239 242 244 242 239 233 221 219 234 243 248 235 226 239 236 243 253 253 236 266 252 259 257 250 240 238 235 231 228 227 225 226 225 224
242 241 244 254 247 234 240 251 255 252 239 230 237 246 249 242 225 234 245 255 263 244 211 254 256 259 265 255 241 231 230 229 228 229 228 229 228 225
247 242 238 246 250 232 233 255 269 272 259 246 246 251 253 246 226 225 238 252 269 257 206 237 258 264 263 255 250 234 231 230 230 231 231 230 229 225
259 256 247 246 251 228 230 244 263 274 279 276 266 266 262 255 226 222 229 236 258 263 213 215 248 251 269 250 249 244 235 235 232 230 231 229 221 219
253 259 259 250 247 236 225 234 248 260 265 266 271 273 274 264 248 233 227 227 237 250 226 202 231 231 246 270 265 249 242 242 236 235 230 225 218 212
246 251 255 253 249 247 237 247 254 259 264 266 270 274 274 272 267 254 238 234 235 246 242 210 224 224 236 256 266 263 247 237 235 235 234 222 218 219
246 247 253 251 246 248 247 247 245 244 248 258 265 269 270 272 273 269 258 248 249 251 246 229 232 236 234 245 254 255 259 251 234 234 230 223 221 216
260 263 257 251 244 245 254 248 235 233 236 250 261 267 271 269 265 266 266 258 259 263 251 239 233 230 239 246 247 254 247 245 239 234 231 230 223 217
256 268 266 262 260 260 258 254 246 242 244 251 258 266 268 265 264 258 254 255 251 263 269 253 239 234 237 242 247 249 251 252 247 231 225 234 233 224
208 243 251 251 253 257 258 261 255 252 253 255 254 255 261 265 268 265 250 246 253 260 265 265 257 246 244 247 227 244 250 251 252 236 225 233 244 232
224 244 248 250 252 252 252 252 255 256 253 253 256 256 254 255 258 259 255 254 256 258 258 253 242 237 256 269 247 218 240 249 240 237 233 231 242 242
244 249 251 251 252 255 254 255 259 261 254 253 256 257 253 249 247 249 249 252 256 258 258 246 236 236 241 257 267 257 226 234 238 241 240 240 253 252
252 256 257 256 256 257 258 258 259 261 262 259 256 256 255 252 251 248 247 247 249 254 255 256 254 248 249 249 257 261 250 224 227 233 231 233 248 245
260 259 259 256 252 252 254 256 260 263 266 262 257 256 255 250 254 255 251 249 249 254 261 268 267 240 225 238 255 265 269 263 239 238 234 222 224 232
261 261 259 255 255 258 258 260 264 266 266 266 265 263 257 254 256 255 254 250 254 261 270 274 271 256 249 247 258 268 273 273 265 253 250 241 241 250